Year,Month,Day,Hour,Minute,Value (Times are PST for temperature in C)
2009,10,12,00,00,3.80
2009,10,12,00,01,3.80
2009,10,12,00,02,3.80
2009,10,12,00,03,3.70
2009,10,12,00,04,3.70
2009,10,12,00,05,3.70
2009,10,12,00,06,3.70
2009,10,12,00,07,3.60
2009,10,12,00,08,3.60
2009,10,12,00,09,3.60
2009,10,12,00,10,3.60
2009,10,12,00,11,3.60
2009,10,12,00,12,3.60
2009,10,12,00,13,3.50
2009,10,12,00,14,3.50
2009,10,12,00,15,3.50
2009,10,12,00,16,3.40
2009,10,12,00,17,3.40
2009,10,12,00,18,3.40
2009,10,12,00,19,3.30
2009,10,12,00,20,3.30
2009,10,12,00,21,3.20
2009,10,12,00,22,3.20
2009,10,12,00,23,3.20
2009,10,12,00,24,3.10
2009,10,12,00,25,3.10
2009,10,12,00,26,3.10
2009,10,12,00,27,3.10
2009,10,12,00,28,3.10
2009,10,12,00,29,3.10
2009,10,12,00,30,3.10
2009,10,12,00,31,3.00
2009,10,12,00,32,3.00
2009,10,12,00,33,3.00
2009,10,12,00,34,2.90
2009,10,12,00,35,2.90
2009,10,12,00,36,2.90
2009,10,12,00,37,2.90
2009,10,12,00,38,2.80
2009,10,12,00,39,2.80
2009,10,12,00,40,2.80
2009,10,12,00,41,2.80
2009,10,12,00,42,2.80
2009,10,12,00,43,2.80
2009,10,12,00,44,2.70
2009,10,12,00,45,2.70
2009,10,12,00,46,2.70
2009,10,12,00,47,2.70
2009,10,12,00,48,2.70
2009,10,12,00,49,2.60
2009,10,12,00,50,2.60
2009,10,12,00,51,2.60
2009,10,12,00,52,2.60
2009,10,12,00,53,2.50
2009,10,12,00,54,2.50
2009,10,12,00,55,2.50
2009,10,12,00,56,2.60
2009,10,12,00,57,2.50
2009,10,12,00,58,2.50
2009,10,12,00,59,2.50
2009,10,12,01,00,2.50
2009,10,12,01,01,2.50
2009,10,12,01,02,2.50
2009,10,12,01,03,2.40
2009,10,12,01,04,2.40
2009,10,12,01,05,2.40
2009,10,12,01,06,2.40
2009,10,12,01,07,2.30
2009,10,12,01,08,2.30
2009,10,12,01,09,2.30
2009,10,12,01,10,2.30
2009,10,12,01,11,2.20
2009,10,12,01,12,2.20
2009,10,12,01,13,2.20
2009,10,12,01,14,2.20
2009,10,12,01,15,2.10
2009,10,12,01,16,2.10
2009,10,12,01,17,2.10
2009,10,12,01,18,2.10
2009,10,12,01,19,2.10
2009,10,12,01,20,2.10
2009,10,12,01,21,2.10
2009,10,12,01,22,2.00
2009,10,12,01,23,2.00
2009,10,12,01,24,2.00
2009,10,12,01,25,1.90
2009,10,12,01,26,1.90
2009,10,12,01,27,1.90
2009,10,12,01,28,1.90
2009,10,12,01,29,1.80
2009,10,12,01,30,1.80
2009,10,12,01,31,1.80
2009,10,12,01,32,1.80
2009,10,12,01,33,1.70
2009,10,12,01,34,1.70
2009,10,12,01,35,1.70
2009,10,12,01,36,1.70
2009,10,12,01,37,1.70
2009,10,12,01,38,1.70
2009,10,12,01,39,1.70
2009,10,12,01,40,1.70
2009,10,12,01,41,1.70
2009,10,12,01,42,1.70
2009,10,12,01,43,1.70
2009,10,12,01,44,1.70
2009,10,12,01,45,1.70
2009,10,12,01,46,1.60
2009,10,12,01,47,1.60
2009,10,12,01,48,1.60
2009,10,12,01,49,1.60
2009,10,12,01,50,1.60
2009,10,12,01,51,1.60
2009,10,12,01,52,1.60
2009,10,12,01,53,1.60
2009,10,12,01,54,1.50
2009,10,12,01,55,1.50
2009,10,12,01,56,1.40
2009,10,12,01,57,1.40
2009,10,12,01,58,1.40
2009,10,12,01,59,1.30
2009,10,12,02,00,1.30
2009,10,12,02,01,1.30
2009,10,12,02,02,1.30
2009,10,12,02,03,1.30
2009,10,12,02,04,1.30
2009,10,12,02,05,1.30
2009,10,12,02,06,1.30
2009,10,12,02,07,1.30
2009,10,12,02,08,1.30
2009,10,12,02,09,1.30
2009,10,12,02,10,1.30
2009,10,12,02,11,1.30
2009,10,12,02,12,1.30
2009,10,12,02,13,1.30
2009,10,12,02,14,1.30
2009,10,12,02,15,1.30
2009,10,12,02,16,1.30
2009,10,12,02,17,1.30
2009,10,12,02,18,1.30
2009,10,12,02,19,1.20
2009,10,12,02,20,1.20
2009,10,12,02,21,1.20
2009,10,12,02,22,1.20
2009,10,12,02,23,1.20
2009,10,12,02,24,1.10
2009,10,12,02,25,1.10
2009,10,12,02,26,1.10
2009,10,12,02,27,1.10
2009,10,12,02,28,1.00
2009,10,12,02,29,1.00
2009,10,12,02,30,1.00
2009,10,12,02,31,1.00
2009,10,12,02,32,1.00
2009,10,12,02,33,1.00
2009,10,12,02,34,1.00
2009,10,12,02,35,1.00
2009,10,12,02,36,1.00
2009,10,12,02,37,1.00
2009,10,12,02,38,1.00
2009,10,12,02,39,1.00
2009,10,12,02,40,1.00
2009,10,12,02,41,1.00
2009,10,12,02,42,1.10
2009,10,12,02,43,1.10
2009,10,12,02,44,1.20
2009,10,12,02,45,1.20
2009,10,12,02,46,1.30
2009,10,12,02,47,1.30
2009,10,12,02,48,1.30
2009,10,12,02,49,1.30
2009,10,12,02,50,1.30
2009,10,12,02,51,1.30
2009,10,12,02,52,1.30
2009,10,12,02,53,1.30
2009,10,12,02,54,1.30
2009,10,12,02,55,1.30
2009,10,12,02,56,1.30
2009,10,12,02,57,1.30
2009,10,12,02,58,1.30
2009,10,12,02,59,1.30
2009,10,12,03,00,1.40
2009,10,12,03,01,1.40
2009,10,12,03,02,1.40
2009,10,12,03,03,1.30
2009,10,12,03,04,1.30
2009,10,12,03,05,1.30
2009,10,12,03,06,1.30
2009,10,12,03,07,1.30
2009,10,12,03,08,1.30
2009,10,12,03,09,1.30
2009,10,12,03,10,1.30
2009,10,12,03,11,1.30
2009,10,12,03,12,1.30
2009,10,12,03,13,1.30
2009,10,12,03,14,1.30
2009,10,12,04,55,1.60
2009,10,12,04,56,1.60
2009,10,12,04,57,1.70
2009,10,12,04,58,1.70
2009,10,12,04,59,1.80
2009,10,12,05,00,1.80
2009,10,12,05,01,1.90
2009,10,12,05,02,1.90
2009,10,12,05,03,1.90
2009,10,12,05,04,1.90
2009,10,12,05,05,2.00
2009,10,12,05,06,2.00
2009,10,12,05,07,2.10
2009,10,12,05,08,2.10
2009,10,12,05,09,2.10
2009,10,12,05,10,2.10
2009,10,12,05,11,2.10
2009,10,12,05,12,2.20
2009,10,12,05,13,2.20
2009,10,12,05,14,2.20
2009,10,12,05,15,2.20
2009,10,12,05,16,2.20
2009,10,12,05,17,2.20
2009,10,12,05,18,2.10
2009,10,12,05,19,2.10
2009,10,12,05,20,2.00
2009,10,12,05,21,2.00
2009,10,12,05,22,1.90
2009,10,12,05,23,1.80
2009,10,12,05,24,1.80
2009,10,12,05,25,1.80
2009,10,12,05,26,1.70
2009,10,12,05,27,1.60
2009,10,12,05,28,1.60
2009,10,12,05,29,1.50
2009,10,12,05,30,1.40
2009,10,12,05,31,1.40
2009,10,12,05,32,1.40
2009,10,12,05,33,1.40
2009,10,12,05,34,1.40
2009,10,12,05,35,1.30
2009,10,12,05,36,1.30
2009,10,12,05,37,1.30
2009,10,12,05,38,1.30
2009,10,12,05,39,1.30
2009,10,12,05,40,1.30
2009,10,12,05,41,1.20
2009,10,12,05,42,1.20
2009,10,12,05,43,1.20
2009,10,12,05,44,1.10
2009,10,12,05,45,1.10
2009,10,12,05,46,1.20
2009,10,12,05,47,1.20
2009,10,12,05,48,1.20
2009,10,12,05,49,1.20
2009,10,12,05,50,1.20
2009,10,12,05,51,1.20
2009,10,12,05,52,1.20
2009,10,12,05,53,1.20
2009,10,12,05,54,1.20
2009,10,12,05,55,1.20
2009,10,12,05,56,1.20
2009,10,12,05,57,1.20
2009,10,12,05,58,1.20
2009,10,12,05,59,1.20
2009,10,12,06,00,1.20
2009,10,12,06,01,1.30
2009,10,12,06,02,1.30
2009,10,12,06,03,1.30
2009,10,12,06,04,1.30
2009,10,12,06,05,1.40
2009,10,12,06,06,1.40
2009,10,12,06,07,1.50
2009,10,12,06,08,1.60
2009,10,12,06,09,1.60
2009,10,12,06,10,1.60
2009,10,12,06,11,1.60
2009,10,12,06,12,1.60
2009,10,12,06,13,1.60
2009,10,12,06,14,1.50
2009,10,12,06,15,1.50
2009,10,12,06,16,1.50
2009,10,12,06,17,1.50
2009,10,12,06,18,1.50
2009,10,12,06,19,1.60
2009,10,12,06,20,1.60
2009,10,12,06,21,1.60
2009,10,12,06,22,1.60
2009,10,12,06,23,1.60
2009,10,12,06,24,1.60
2009,10,12,06,25,1.70
2009,10,12,06,26,1.70
2009,10,12,06,27,1.70
2009,10,12,06,28,1.70
2009,10,12,06,29,1.70
2009,10,12,06,30,1.80
2009,10,12,06,31,1.80
2009,10,12,06,32,1.80
2009,10,12,06,33,1.80
2009,10,12,06,34,1.80
2009,10,12,06,35,1.80
2009,10,12,06,36,1.70
2009,10,12,06,37,1.60
2009,10,12,06,38,1.60
2009,10,12,06,39,1.50
2009,10,12,06,40,1.40
2009,10,12,06,41,1.40
2009,10,12,06,42,1.30
2009,10,12,06,43,1.30
2009,10,12,06,44,1.30
2009,10,12,06,45,1.30
2009,10,12,06,46,1.30
2009,10,12,06,47,1.30
2009,10,12,06,48,1.30
2009,10,12,06,49,1.30
2009,10,12,06,50,1.30
2009,10,12,06,51,1.30
2009,10,12,06,52,1.40
2009,10,12,06,53,1.40
2009,10,12,06,54,1.40
2009,10,12,06,55,1.40
2009,10,12,06,56,1.50
2009,10,12,06,57,1.50
2009,10,12,06,58,1.60
2009,10,12,06,59,1.60
2009,10,12,07,00,1.70
2009,10,12,07,01,1.90
2009,10,12,07,02,1.90
2009,10,12,07,03,2.10
2009,10,12,07,04,2.10
2009,10,12,07,05,2.20
2009,10,12,07,06,2.20
2009,10,12,07,07,2.30
2009,10,12,07,08,2.30
2009,10,12,07,09,2.30
2009,10,12,07,10,2.30
2009,10,12,07,11,2.30
2009,10,12,07,12,2.30
2009,10,12,07,13,2.30
2009,10,12,07,14,2.30
2009,10,12,07,15,2.30
2009,10,12,07,16,2.40
2009,10,12,07,17,2.40
2009,10,12,07,18,2.40
2009,10,12,07,19,2.40
2009,10,12,07,20,2.40
2009,10,12,07,21,2.40
2009,10,12,07,22,2.50
2009,10,12,07,23,2.50
2009,10,12,07,24,2.50
2009,10,12,07,25,2.60
2009,10,12,07,26,2.60
2009,10,12,07,27,2.60
2009,10,12,07,28,2.70
2009,10,12,07,29,2.70
2009,10,12,07,30,2.80
2009,10,12,07,31,2.80
2009,10,12,07,32,2.80
2009,10,12,07,33,2.80
2009,10,12,07,34,2.90
2009,10,12,07,35,2.90
2009,10,12,07,36,2.90
2009,10,12,07,37,3.00
2009,10,12,07,38,3.00
2009,10,12,07,39,3.10
2009,10,12,07,40,3.10
2009,10,12,07,41,3.10
2009,10,12,07,42,3.10
2009,10,12,07,43,3.20
2009,10,12,07,44,3.20
2009,10,12,07,45,3.20
2009,10,12,07,46,3.20
2009,10,12,07,47,3.20
2009,10,12,07,48,3.30
2009,10,12,07,49,3.30
2009,10,12,07,50,3.40
2009,10,12,07,51,3.40
2009,10,12,07,52,3.50
2009,10,12,07,53,3.50
2009,10,12,07,54,3.60
2009,10,12,07,55,3.60
2009,10,12,07,56,3.60
2009,10,12,07,57,3.70
2009,10,12,07,58,3.70
2009,10,12,07,59,3.70
2009,10,12,08,00,3.70
2009,10,12,08,01,3.70
2009,10,12,08,02,3.70
2009,10,12,08,03,3.70
2009,10,12,08,04,3.80
2009,10,12,08,05,3.80
2009,10,12,08,06,3.90
2009,10,12,08,07,3.90
2009,10,12,08,08,3.90
2009,10,12,08,09,3.90
2009,10,12,08,10,4.00
2009,10,12,08,11,4.00
2009,10,12,08,12,4.00
2009,10,12,08,13,4.10
2009,10,12,08,14,4.10
2009,10,12,08,15,4.10
2009,10,12,08,16,4.10
2009,10,12,08,17,4.20
2009,10,12,08,18,4.20
2009,10,12,08,19,4.20
2009,10,12,08,20,4.20
2009,10,12,08,21,4.20
2009,10,12,08,22,4.20
2009,10,12,08,23,4.30
2009,10,12,08,24,4.30
2009,10,12,08,25,4.30
2009,10,12,08,26,4.30
2009,10,12,08,27,4.30
2009,10,12,08,28,4.30
2009,10,12,08,29,4.40
2009,10,12,08,30,4.40
2009,10,12,08,31,4.40
2009,10,12,08,32,4.40
2009,10,12,08,33,4.50
2009,10,12,08,34,4.50
2009,10,12,08,35,4.50
2009,10,12,08,36,4.60
2009,10,12,08,37,4.60
2009,10,12,08,38,4.60
2009,10,12,08,39,4.60
2009,10,12,08,40,4.70
2009,10,12,08,41,4.70
2009,10,12,08,42,4.70
2009,10,12,08,43,4.70
2009,10,12,08,44,4.70
2009,10,12,08,45,4.80
2009,10,12,08,46,4.80
2009,10,12,08,47,4.80
2009,10,12,08,48,4.80
2009,10,12,08,49,4.90
2009,10,12,08,50,4.90
2009,10,12,08,51,5.00
2009,10,12,08,52,5.00
2009,10,12,08,53,5.10
2009,10,12,08,54,5.10
2009,10,12,08,55,5.20
2009,10,12,08,56,5.20
2009,10,12,08,57,5.30
2009,10,12,08,58,5.30
2009,10,12,08,59,5.40
2009,10,12,09,00,5.40
2009,10,12,09,01,5.50
2009,10,12,09,02,5.60
2009,10,12,09,03,5.60
2009,10,12,09,04,5.70
2009,10,12,09,05,5.80
2009,10,12,09,06,5.80
2009,10,12,09,07,5.80
2009,10,12,09,08,5.90
2009,10,12,09,09,5.90
2009,10,12,09,10,6.00
2009,10,12,09,11,6.00
2009,10,12,09,12,6.10
2009,10,12,09,13,6.20
2009,10,12,09,14,6.20
2009,10,12,09,15,6.30
2009,10,12,09,16,6.30
2009,10,12,09,17,6.40
2009,10,12,09,18,6.40
2009,10,12,09,19,6.50
2009,10,12,09,20,6.60
2009,10,12,09,21,6.60
2009,10,12,09,22,6.60
2009,10,12,09,23,6.70
2009,10,12,09,24,6.70
2009,10,12,09,25,6.80
2009,10,12,09,26,6.80
2009,10,12,09,27,6.80
2009,10,12,09,28,6.80
2009,10,12,09,29,6.80
2009,10,12,09,30,6.90
2009,10,12,09,31,6.90
2009,10,12,09,32,6.90
2009,10,12,09,33,6.90
2009,10,12,09,34,6.90
2009,10,12,09,35,7.00
2009,10,12,09,36,7.00
2009,10,12,09,37,7.10
2009,10,12,09,38,7.10
2009,10,12,09,39,7.10
2009,10,12,09,40,7.10
2009,10,12,09,41,7.20
2009,10,12,09,42,7.20
2009,10,12,09,43,7.20
2009,10,12,09,44,7.20
2009,10,12,09,45,7.20
2009,10,12,09,46,7.20
2009,10,12,09,47,7.20
2009,10,12,09,48,7.30
2009,10,12,09,49,7.30
2009,10,12,09,50,7.30
2009,10,12,09,51,7.30
2009,10,12,09,52,7.30
2009,10,12,09,53,7.30
2009,10,12,09,54,7.40
2009,10,12,09,55,7.40
2009,10,12,09,56,7.40
2009,10,12,09,57,7.40
2009,10,12,09,58,7.40
2009,10,12,09,59,7.50
2009,10,12,10,00,7.50
2009,10,12,10,01,7.50
2009,10,12,10,02,7.50
2009,10,12,10,03,7.60
2009,10,12,10,04,7.60
2009,10,12,10,05,7.60
2009,10,12,10,06,7.60
2009,10,12,10,07,7.60
2009,10,12,10,08,7.60
2009,10,12,10,09,7.60
2009,10,12,10,10,7.60
2009,10,12,10,11,7.60
2009,10,12,10,12,7.60
2009,10,12,10,13,7.60
2009,10,12,10,14,7.70
2009,10,12,10,15,7.70
2009,10,12,10,16,7.70
2009,10,12,10,17,7.70
2009,10,12,10,18,7.70
2009,10,12,10,19,7.70
2009,10,12,10,20,7.70
2009,10,12,10,21,7.70
2009,10,12,10,22,7.80
2009,10,12,10,23,7.80
2009,10,12,10,24,7.80
2009,10,12,10,25,7.80
2009,10,12,10,26,7.80
2009,10,12,10,27,7.80
2009,10,12,10,28,7.80
2009,10,12,10,29,7.80
2009,10,12,10,30,7.80
2009,10,12,10,31,7.90
2009,10,12,10,32,7.90
2009,10,12,10,33,7.90
2009,10,12,10,34,7.90
2009,10,12,10,35,7.90
2009,10,12,10,36,7.90
2009,10,12,10,37,7.90
2009,10,12,10,38,7.90
2009,10,12,10,39,8.00
2009,10,12,10,40,8.00
2009,10,12,10,41,8.10
2009,10,12,10,42,8.10
2009,10,12,10,43,8.10
2009,10,12,10,44,8.10
2009,10,12,10,45,8.10
2009,10,12,10,46,8.10
2009,10,12,10,47,8.10
2009,10,12,10,48,8.10
2009,10,12,10,49,8.10
2009,10,12,10,50,8.10
2009,10,12,10,51,8.20
2009,10,12,10,52,8.20
2009,10,12,10,53,8.20
2009,10,12,10,54,8.20
2009,10,12,10,55,8.20
2009,10,12,10,56,8.20
2009,10,12,10,57,8.20
2009,10,12,10,58,8.20
2009,10,12,10,59,8.20
2009,10,12,11,00,8.20
2009,10,12,11,01,8.20
2009,10,12,11,02,8.30
2009,10,12,11,03,8.30
2009,10,12,11,04,8.30
2009,10,12,11,05,8.30
2009,10,12,11,06,8.30
2009,10,12,11,07,8.30
2009,10,12,11,08,8.30
2009,10,12,11,09,8.30
2009,10,12,11,10,8.30
2009,10,12,11,11,8.30
2009,10,12,11,12,8.30
2009,10,12,11,13,8.30
2009,10,12,11,14,8.30
2009,10,12,11,15,8.30
2009,10,12,11,16,8.30
2009,10,12,11,17,8.30
2009,10,12,11,18,8.30
2009,10,12,11,19,8.30
2009,10,12,11,20,8.30
2009,10,12,11,21,8.40
2009,10,12,11,22,8.40
2009,10,12,11,23,8.30
2009,10,12,11,24,8.40
2009,10,12,11,25,8.40
2009,10,12,11,26,8.40
2009,10,12,11,27,8.40
2009,10,12,11,28,8.40
2009,10,12,11,29,8.40
2009,10,12,11,30,8.50
2009,10,12,11,31,8.50
2009,10,12,11,32,8.60
2009,10,12,11,33,8.60
2009,10,12,11,34,8.70
2009,10,12,11,35,8.70
2009,10,12,11,36,8.70
2009,10,12,11,37,8.70
2009,10,12,11,38,8.70
2009,10,12,11,39,8.70
2009,10,12,11,40,8.80
2009,10,12,11,41,8.80
2009,10,12,11,42,8.80
2009,10,12,11,43,8.80
2009,10,12,11,44,8.80
2009,10,12,11,45,8.80
2009,10,12,11,46,8.80
2009,10,12,11,47,8.80
2009,10,12,11,48,8.90
2009,10,12,11,49,8.90
2009,10,12,11,50,8.90
2009,10,12,11,51,8.90
2009,10,12,11,52,9.00
2009,10,12,11,53,9.00
2009,10,12,11,54,9.00
2009,10,12,11,55,9.00
2009,10,12,11,56,9.10
2009,10,12,11,57,9.10
2009,10,12,11,58,9.10
2009,10,12,11,59,9.20
2009,10,12,12,00,9.20
2009,10,12,12,01,9.20
2009,10,12,12,02,9.30
2009,10,12,12,03,9.30
2009,10,12,12,04,9.30
2009,10,12,12,05,9.30
2009,10,12,12,06,9.30
2009,10,12,12,07,9.30
2009,10,12,12,08,9.30
2009,10,12,12,09,9.30
2009,10,12,12,10,9.30
2009,10,12,12,11,9.30
2009,10,12,12,12,9.40
2009,10,12,12,13,9.40
2009,10,12,12,14,9.40
2009,10,12,12,15,9.40
2009,10,12,12,16,9.50
2009,10,12,12,17,9.60
2009,10,12,12,18,9.60
2009,10,12,12,19,9.70
2009,10,12,12,20,9.80
2009,10,12,12,21,9.80
2009,10,12,12,22,9.70
2009,10,12,12,23,9.70
2009,10,12,12,24,9.70
2009,10,12,12,25,9.70
2009,10,12,12,26,9.70
2009,10,12,12,27,9.70
2009,10,12,12,28,9.80
2009,10,12,12,29,9.80
2009,10,12,12,30,9.80
2009,10,12,12,31,9.80
2009,10,12,12,32,9.80
2009,10,12,12,33,9.80
2009,10,12,12,34,9.70
2009,10,12,12,35,9.70
2009,10,12,12,36,9.70
2009,10,12,12,37,9.70
2009,10,12,12,38,9.70
2009,10,12,12,39,9.70
2009,10,12,12,40,9.70
2009,10,12,12,41,9.70
2009,10,12,12,42,9.60
2009,10,12,12,43,9.60
2009,10,12,12,44,9.60
2009,10,12,12,45,9.60
2009,10,12,12,46,9.60
2009,10,12,12,47,9.60
2009,10,12,12,48,9.50
2009,10,12,12,49,9.50
2009,10,12,12,50,9.60
2009,10,12,12,51,9.60
2009,10,12,12,52,9.60
2009,10,12,12,53,9.60
2009,10,12,12,54,9.60
2009,10,12,12,55,9.60
2009,10,12,12,56,9.60
2009,10,12,12,57,9.50
2009,10,12,12,58,9.50
2009,10,12,12,59,9.50
2009,10,12,13,00,9.60
2009,10,12,13,01,9.50
2009,10,12,13,02,9.60
2009,10,12,13,03,9.50
2009,10,12,13,04,9.50
2009,10,12,13,05,9.50
2009,10,12,13,06,9.50
2009,10,12,13,07,9.60
2009,10,12,13,08,9.60
2009,10,12,13,09,9.60
2009,10,12,13,10,9.60
2009,10,12,13,11,9.60
2009,10,12,13,12,9.60
2009,10,12,13,13,9.60
2009,10,12,13,14,9.70
2009,10,12,13,15,9.70
2009,10,12,13,16,9.80
2009,10,12,13,17,9.80
2009,10,12,13,18,9.80
2009,10,12,13,19,9.80
2009,10,12,13,20,9.90
2009,10,12,13,21,9.90
2009,10,12,13,22,9.90
2009,10,12,13,23,9.90
2009,10,12,13,24,10.00
2009,10,12,13,25,10.10
2009,10,12,13,26,10.10
2009,10,12,13,27,10.10
2009,10,12,13,28,10.10
2009,10,12,13,29,10.00
2009,10,12,13,30,10.00
2009,10,12,13,31,10.00
2009,10,12,13,32,10.00
2009,10,12,13,33,10.00
2009,10,12,13,34,10.00
2009,10,12,13,35,10.00
2009,10,12,13,36,10.00
2009,10,12,13,37,10.00
2009,10,12,13,38,10.00
2009,10,12,13,39,10.00
2009,10,12,13,40,10.00
2009,10,12,13,41,10.00
2009,10,12,13,42,10.10
2009,10,12,13,43,10.10
2009,10,12,13,44,10.10
2009,10,12,13,45,10.00
2009,10,12,13,46,10.00
2009,10,12,13,47,9.90
2009,10,12,13,48,9.90
2009,10,12,13,49,9.90
2009,10,12,13,50,9.90
2009,10,12,13,51,9.90
2009,10,12,13,52,9.90
2009,10,12,13,53,10.00
2009,10,12,13,54,10.00
2009,10,12,13,55,10.00
2009,10,12,13,56,10.00
2009,10,12,13,57,10.00
2009,10,12,13,58,10.00
2009,10,12,13,59,10.00
2009,10,12,14,00,10.00
2009,10,12,14,01,10.00
2009,10,12,14,02,10.00
2009,10,12,14,03,10.00
2009,10,12,14,04,10.00
2009,10,12,14,05,10.00
2009,10,12,14,06,9.90
2009,10,12,14,07,9.90
2009,10,12,14,08,10.00
2009,10,12,14,09,10.00
2009,10,12,14,10,10.00
2009,10,12,14,11,10.10
2009,10,12,14,12,10.10
2009,10,12,14,13,10.20
2009,10,12,14,14,10.20
2009,10,12,14,15,10.20
2009,10,12,14,16,10.20
2009,10,12,14,17,10.20
2009,10,12,14,18,10.20
2009,10,12,14,19,10.20
2009,10,12,14,20,10.20
2009,10,12,14,21,10.20
2009,10,12,14,22,10.20
2009,10,12,14,23,10.20
2009,10,12,14,24,10.20
2009,10,12,14,25,10.20
2009,10,12,14,26,10.20
2009,10,12,14,27,10.20
2009,10,12,14,28,10.20
2009,10,12,14,29,10.20
2009,10,12,14,30,10.20
2009,10,12,14,31,10.20
2009,10,12,14,32,10.20
2009,10,12,14,33,10.20
2009,10,12,14,34,10.20
2009,10,12,14,35,10.20
2009,10,12,14,36,10.20
2009,10,12,14,37,10.20
2009,10,12,14,38,10.20
2009,10,12,14,39,10.20
2009,10,12,14,40,10.20
2009,10,12,14,41,10.20
2009,10,12,14,42,10.20
2009,10,12,14,43,10.30
2009,10,12,14,44,10.30
2009,10,12,14,45,10.30
2009,10,12,14,46,10.30
2009,10,12,14,47,10.30
2009,10,12,14,48,10.30
2009,10,12,14,49,10.30
2009,10,12,14,50,10.30
2009,10,12,14,51,10.30
2009,10,12,14,52,10.30
2009,10,12,14,53,10.30
2009,10,12,14,54,10.20
2009,10,12,14,55,10.20
2009,10,12,14,56,10.20
2009,10,12,14,57,10.20
2009,10,12,14,58,10.20
2009,10,12,14,59,10.20
2009,10,12,15,00,10.20
2009,10,12,15,01,10.20
2009,10,12,15,02,10.20
2009,10,12,15,03,10.20
2009,10,12,15,04,10.20
2009,10,12,15,05,10.20
2009,10,12,15,06,10.20
2009,10,12,15,07,10.20
2009,10,12,15,08,10.20
2009,10,12,15,09,10.20
2009,10,12,15,10,10.20
2009,10,12,15,11,10.20
2009,10,12,15,12,10.30
2009,10,12,15,13,10.30
2009,10,12,15,14,10.30
2009,10,12,15,15,10.30
2009,10,12,15,16,10.30
2009,10,12,15,17,10.30
2009,10,12,15,18,10.30
2009,10,12,15,19,10.30
2009,10,12,15,20,10.30
2009,10,12,15,21,10.30
2009,10,12,15,22,10.30
2009,10,12,15,23,10.30
2009,10,12,15,24,10.30
2009,10,12,15,25,10.30
2009,10,12,15,26,10.30
2009,10,12,15,27,10.30
2009,10,12,15,28,10.30
2009,10,12,15,29,10.30
2009,10,12,15,30,10.30
2009,10,12,15,31,10.30
2009,10,12,15,32,10.30
2009,10,12,15,33,10.20
2009,10,12,15,34,10.20
2009,10,12,15,35,10.30
2009,10,12,15,36,10.30
2009,10,12,15,37,10.30
2009,10,12,15,38,10.30
2009,10,12,15,39,10.30
2009,10,12,15,40,10.30
2009,10,12,15,41,10.30
2009,10,12,15,42,10.30
2009,10,12,15,43,10.30
2009,10,12,15,44,10.30
2009,10,12,15,45,10.30
2009,10,12,15,46,10.30
2009,10,12,15,47,10.30
2009,10,12,15,48,10.30
2009,10,12,15,49,10.30
2009,10,12,15,50,10.20
2009,10,12,15,51,10.20
2009,10,12,15,52,10.20
2009,10,12,15,53,10.20
2009,10,12,15,54,10.20
2009,10,12,15,55,10.20
2009,10,12,15,56,10.20
2009,10,12,15,57,10.20
2009,10,12,15,58,10.20
2009,10,12,15,59,10.20
2009,10,12,16,00,10.20
2009,10,12,16,01,10.10
2009,10,12,16,02,10.10
2009,10,12,16,03,10.10
2009,10,12,16,04,10.10
2009,10,12,16,05,10.10
2009,10,12,16,06,10.10
2009,10,12,16,07,10.10
2009,10,12,16,08,10.10
2009,10,12,16,09,10.10
2009,10,12,16,10,10.10
2009,10,12,16,11,10.10
2009,10,12,16,12,10.10
2009,10,12,16,13,10.10
2009,10,12,16,14,10.10
2009,10,12,16,15,10.10
2009,10,12,16,16,10.10
2009,10,12,16,17,10.10
2009,10,12,16,18,10.10
2009,10,12,16,19,10.10
2009,10,12,16,20,10.10
2009,10,12,16,21,10.10
2009,10,12,16,22,10.10
2009,10,12,16,23,10.10
2009,10,12,16,24,10.10
2009,10,12,16,25,10.10
2009,10,12,16,26,10.10
2009,10,12,16,27,10.10
2009,10,12,16,28,10.10
2009,10,12,16,29,10.10
2009,10,12,16,30,10.10
2009,10,12,16,31,10.10
2009,10,12,16,32,10.10
2009,10,12,16,33,10.10
2009,10,12,16,34,10.10
2009,10,12,16,35,10.10
2009,10,12,16,36,10.10
2009,10,12,16,37,10.10
2009,10,12,16,38,10.10
2009,10,12,16,39,10.00
2009,10,12,16,40,10.10
2009,10,12,16,41,10.10
2009,10,12,16,42,10.10
2009,10,12,16,43,10.00
2009,10,12,16,44,10.00
2009,10,12,16,45,10.00
2009,10,12,16,46,10.00
2009,10,12,16,47,9.90
2009,10,12,16,48,9.90
2009,10,12,16,49,9.90
2009,10,12,16,50,9.80
2009,10,12,16,51,9.80
2009,10,12,16,52,9.80
2009,10,12,16,53,9.80
2009,10,12,16,54,9.80
2009,10,12,16,55,9.70
2009,10,12,16,56,9.70
2009,10,12,16,57,9.70
2009,10,12,16,58,9.60
2009,10,12,16,59,9.60
2009,10,12,17,00,9.60
2009,10,12,17,01,9.60
2009,10,12,17,02,9.60
2009,10,12,17,03,9.60
2009,10,12,17,04,9.50
2009,10,12,17,05,9.50
2009,10,12,17,06,9.50
2009,10,12,17,07,9.50
2009,10,12,17,08,9.40
2009,10,12,17,09,9.40
2009,10,12,17,10,9.40
2009,10,12,17,11,9.40
2009,10,12,17,12,9.40
2009,10,12,17,13,9.40
2009,10,12,17,14,9.40
2009,10,12,17,15,9.40
2009,10,12,17,16,9.40
2009,10,12,17,17,9.40
2009,10,12,17,18,9.40
2009,10,12,17,19,9.40
2009,10,12,17,20,9.40
2009,10,12,17,21,9.40
2009,10,12,17,22,9.40
2009,10,12,17,23,9.40
2009,10,12,17,24,9.40
2009,10,12,17,25,9.40
2009,10,12,17,26,9.40
2009,10,12,17,27,9.40
2009,10,12,17,28,9.40
2009,10,12,17,29,9.40
2009,10,12,17,30,9.40
2009,10,12,17,31,9.40
2009,10,12,17,32,9.40
2009,10,12,17,33,9.40
2009,10,12,17,34,9.40
2009,10,12,17,35,9.40
2009,10,12,17,36,9.40
2009,10,12,17,37,9.30
2009,10,12,17,38,9.30
2009,10,12,17,39,9.30
2009,10,12,17,40,9.30
2009,10,12,17,41,9.30
2009,10,12,17,42,9.20
2009,10,12,17,43,9.20
2009,10,12,17,44,9.20
2009,10,12,17,45,9.20
2009,10,12,17,46,9.20
2009,10,12,17,47,9.20
2009,10,12,17,48,9.20
2009,10,12,17,49,9.10
2009,10,12,17,50,9.10
2009,10,12,17,51,9.00
2009,10,12,17,52,8.90
2009,10,12,17,53,8.90
2009,10,12,17,54,8.90
2009,10,12,17,55,8.90
2009,10,12,17,56,8.80
2009,10,12,17,57,8.80
2009,10,12,17,58,8.80
2009,10,12,17,59,8.80
2009,10,12,18,00,8.80
2009,10,12,18,01,8.80
2009,10,12,18,02,8.80
2009,10,12,18,03,8.80
2009,10,12,18,04,8.80
2009,10,12,18,05,8.80
2009,10,12,18,06,8.80
2009,10,12,18,07,8.80
2009,10,12,18,08,8.80
2009,10,12,18,09,8.80
2009,10,12,18,10,8.80
2009,10,12,18,11,8.80
2009,10,12,18,12,8.80
2009,10,12,18,13,8.80
2009,10,12,18,14,8.80
2009,10,12,18,15,8.80
2009,10,12,18,16,8.90
2009,10,12,18,17,8.90
2009,10,12,18,18,8.90
2009,10,12,18,19,8.90
2009,10,12,18,20,8.80
2009,10,12,18,21,8.80
2009,10,12,18,22,8.90
2009,10,12,18,23,8.90
2009,10,12,18,24,8.90
2009,10,12,18,25,8.90
2009,10,12,18,26,8.90
2009,10,12,18,27,8.90
2009,10,12,18,28,8.90
2009,10,12,18,29,8.90
2009,10,12,18,30,8.90
2009,10,12,18,31,8.90
2009,10,12,18,32,8.90
2009,10,12,18,33,8.90
2009,10,12,18,34,8.90
2009,10,12,18,35,8.90
2009,10,12,18,36,8.90
2009,10,12,18,37,8.90
2009,10,12,18,38,8.90
2009,10,12,18,39,8.90
2009,10,12,18,40,8.90
2009,10,12,18,41,8.80
2009,10,12,18,42,8.80
2009,10,12,18,43,8.80
2009,10,12,18,44,8.80
2009,10,12,18,45,8.80
2009,10,12,18,46,8.80
2009,10,12,18,47,8.80
2009,10,12,18,48,8.80
2009,10,12,18,49,8.80
2009,10,12,18,50,8.80
2009,10,12,18,51,8.80
2009,10,12,18,52,8.70
2009,10,12,18,53,8.70
2009,10,12,18,54,8.70
2009,10,12,18,55,8.70
2009,10,12,18,56,8.70
2009,10,12,18,57,8.70
2009,10,12,18,58,8.70
2009,10,12,18,59,8.70
2009,10,12,19,00,8.70
2009,10,12,19,01,8.70
2009,10,12,19,02,8.70
2009,10,12,19,03,8.70
2009,10,12,19,04,8.70
2009,10,12,19,05,8.70
2009,10,12,19,06,8.70
2009,10,12,19,07,8.70
2009,10,12,19,08,8.70
2009,10,12,19,09,8.70
2009,10,12,19,10,8.70
2009,10,12,19,11,8.70
2009,10,12,19,12,8.70
2009,10,12,19,13,8.70
2009,10,12,19,14,8.70
2009,10,12,19,15,8.70
2009,10,12,19,16,8.70
2009,10,12,19,17,8.70
2009,10,12,19,18,8.70
2009,10,12,19,19,8.70
2009,10,12,19,20,8.70
2009,10,12,19,21,8.70
2009,10,12,19,22,8.70
2009,10,12,19,23,8.70
2009,10,12,19,24,8.70
2009,10,12,19,25,8.70
2009,10,12,19,26,8.70
2009,10,12,19,27,8.70
2009,10,12,19,28,8.70
2009,10,12,19,29,8.70
2009,10,12,19,30,8.70
2009,10,12,19,31,8.70
2009,10,12,19,32,8.60
2009,10,12,19,33,8.60
2009,10,12,19,34,8.60
2009,10,12,19,35,8.60
2009,10,12,19,36,8.60
2009,10,12,19,37,8.60